EIN26M EGBB-EIDW

Flight info

Callsign EIN26M
Flight time 0h 36m
Altitude 24000
Route LUVUM DCT NANTI Y53 WAL L10 PENIL L28 LELDO M145 BAGSO BAGSO4L
Aircraft A320/M-SDE3FGHIRWY/LB1

Departure

Time 2026-05-06 12:24
Airport Birmingham Airport (EGBB)

Arrival

Time 2026-05-06 13:01
Airport Dublin Airport (EIDW)
Time Latitude Longitude Altitude Speed Heading
2026-05-06 12:13 52.45313 -1.73712 321 ft 0 kts 146°
2026-05-06 12:17 52.45314 -1.73713 321 ft 1 kts 146°
2026-05-06 12:18 52.45334 -1.73735 320 ft 4 kts 146°
2026-05-06 12:18 52.45352 -1.73755 323 ft 4 kts 141°
2026-05-06 12:18 52.45370 -1.73786 320 ft 4 kts 117°
2026-05-06 12:18 52.45375 -1.73824 322 ft 4 kts 65°
2026-05-06 12:19 52.45380 -1.73817 322 ft 4 kts 56°
2026-05-06 12:19 52.45382 -1.73811 321 ft 0 kts 56°
2026-05-06 12:20 52.45382 -1.73810 321 ft 0 kts 57°
2026-05-06 12:20 52.45370 -1.73815 321 ft 6 kts 228°
2026-05-06 12:20 52.45345 -1.73898 323 ft 12 kts 241°
2026-05-06 12:21 52.45280 -1.73973 323 ft 12 kts 166°
2026-05-06 12:21 52.45215 -1.73904 323 ft 11 kts 146°
2026-05-06 12:21 52.45159 -1.73839 323 ft 10 kts 144°
2026-05-06 12:21 52.45102 -1.73774 323 ft 12 kts 145°
2026-05-06 12:22 52.45024 -1.73734 323 ft 13 kts 153°
2026-05-06 12:22 52.44930 -1.73644 324 ft 18 kts 175°
2026-05-06 12:22 52.44813 -1.73690 324 ft 17 kts 196°
2026-05-06 12:22 52.44721 -1.73773 325 ft 14 kts 233°
2026-05-06 12:23 52.44667 -1.73898 325 ft 17 kts 236°
2026-05-06 12:23 52.44664 -1.73998 327 ft 8 kts 321°
2026-05-06 12:23 52.44714 -1.74057 325 ft 17 kts 326°
2026-05-06 12:23 52.45017 -1.74391 330 ft 89 kts 326°
2026-05-06 12:24 52.45707 -1.75159 326 ft 149 kts 326°
2026-05-06 12:24 52.46583 -1.76146 930 ft 152 kts 329°
2026-05-06 12:24 52.47462 -1.77133 1733 ft 156 kts 330°
2026-05-06 12:24 52.48417 -1.78195 2200 ft 177 kts 329°
2026-05-06 12:25 52.49581 -1.79038 2568 ft 198 kts 354°
2026-05-06 12:25 52.51041 -1.78913 3041 ft 220 kts
2026-05-06 12:25 52.52647 -1.78568 3594 ft 244 kts
2026-05-06 12:25 52.54358 -1.78207 4522 ft 250 kts
2026-05-06 12:26 52.56073 -1.77853 5555 ft 253 kts
2026-05-06 12:26 52.57827 -1.77491 6587 ft 255 kts
2026-05-06 12:26 52.59601 -1.77124 7504 ft 259 kts
2026-05-06 12:26 52.61413 -1.76756 8386 ft 266 kts
2026-05-06 12:27 52.63268 -1.76381 9266 ft 271 kts
2026-05-06 12:27 52.65165 -1.75991 10115 ft 278 kts
2026-05-06 12:27 52.67166 -1.75645 10482 ft 301 kts 359°
2026-05-06 12:27 52.69319 -1.76013 10744 ft 323 kts 346°
2026-05-06 12:28 52.71508 -1.77277 10970 ft 345 kts 333°
2026-05-06 12:28 52.73575 -1.79401 11509 ft 355 kts 321°
2026-05-06 12:28 52.75372 -1.82236 12238 ft 360 kts 311°
2026-05-06 12:28 52.77018 -1.85375 12998 ft 364 kts 310°
2026-05-06 12:29 52.78681 -1.88548 13759 ft 367 kts 310°
2026-05-06 12:29 52.80361 -1.91755 14433 ft 371 kts 310°
2026-05-06 12:29 52.82052 -1.94993 15090 ft 374 kts 310°
2026-05-06 12:29 52.83759 -1.98270 15740 ft 378 kts 310°
2026-05-06 12:30 52.85481 -2.01582 16401 ft 381 kts 310°
2026-05-06 12:30 52.87215 -2.04926 17068 ft 384 kts 310°
2026-05-06 12:30 52.88960 -2.08304 17730 ft 388 kts 310°
2026-05-06 12:30 52.90720 -2.11717 18365 ft 391 kts 310°
2026-05-06 12:31 52.92498 -2.15161 18903 ft 395 kts 309°
2026-05-06 12:31 52.94290 -2.18634 19437 ft 398 kts 309°
2026-05-06 12:31 52.96096 -2.22140 19965 ft 401 kts 309°
2026-05-06 12:31 52.97914 -2.25673 20469 ft 404 kts 309°
2026-05-06 12:32 52.99745 -2.29240 20984 ft 407 kts 309°
2026-05-06 12:32 53.01585 -2.32829 21479 ft 410 kts 309°
2026-05-06 12:32 53.03442 -2.36447 21954 ft 413 kts 309°
2026-05-06 12:32 53.05309 -2.40090 22413 ft 416 kts 309°
2026-05-06 12:33 53.07186 -2.43767 22863 ft 418 kts 309°
2026-05-06 12:33 53.09074 -2.47475 23289 ft 421 kts 309°
2026-05-06 12:33 53.10972 -2.51209 23695 ft 424 kts 309°
2026-05-06 12:33 53.12878 -2.54970 23982 ft 426 kts 309°
2026-05-06 12:34 53.14776 -2.58780 24045 ft 431 kts 307°
2026-05-06 12:34 53.16645 -2.62757 24063 ft 440 kts 306°
2026-05-06 12:34 53.18491 -2.66854 24064 ft 444 kts 305°
2026-05-06 12:34 53.20318 -2.71011 24064 ft 445 kts 305°
2026-05-06 12:35 53.22141 -2.75183 24072 ft 445 kts 305°
2026-05-06 12:35 53.23968 -2.79341 24060 ft 444 kts 305°
2026-05-06 12:35 53.25810 -2.83490 24059 ft 444 kts 305°
2026-05-06 12:35 53.27662 -2.87624 24052 ft 444 kts 306°
2026-05-06 12:36 53.29519 -2.91749 24063 ft 444 kts 306°
2026-05-06 12:36 53.31377 -2.95876 24062 ft 444 kts 306°
2026-05-06 12:36 53.33231 -3.00015 24054 ft 444 kts 306°
2026-05-06 12:36 53.35081 -3.04160 24062 ft 445 kts 305°
2026-05-06 12:37 53.36927 -3.08312 24064 ft 444 kts 305°
2026-05-06 12:37 53.38745 -3.12411 24067 ft 444 kts 305°
2026-05-06 12:37 53.40574 -3.16574 24066 ft 444 kts 305°
2026-05-06 12:37 53.42378 -3.20769 24060 ft 443 kts 304°
2026-05-06 12:38 53.44163 -3.24983 24050 ft 443 kts 304°
2026-05-06 12:38 53.45947 -3.29210 24066 ft 443 kts 304°
2026-05-06 12:38 53.47727 -3.33432 24060 ft 443 kts 304°
2026-05-06 12:38 53.49508 -3.37653 24060 ft 443 kts 304°
2026-05-06 12:39 53.51292 -3.41882 24060 ft 443 kts 304°
2026-05-06 12:39 53.53079 -3.46108 24066 ft 444 kts 304°
2026-05-06 12:39 53.54867 -3.50336 24071 ft 444 kts 304°
2026-05-06 12:39 53.56654 -3.54570 24077 ft 444 kts 304°
2026-05-06 12:40 53.58437 -3.58806 24079 ft 444 kts 304°
2026-05-06 12:40 53.60216 -3.63049 24076 ft 444 kts 303°
2026-05-06 12:40 53.61808 -3.67486 24076 ft 442 kts 296°
2026-05-06 12:40 53.63027 -3.72237 24078 ft 441 kts 291°
2026-05-06 12:41 53.64173 -3.77029 24076 ft 441 kts 291°
2026-05-06 12:41 53.65318 -3.81821 24060 ft 441 kts 291°
2026-05-06 12:41 53.66464 -3.86618 24064 ft 441 kts 291°
2026-05-06 12:41 53.67604 -3.91409 24075 ft 440 kts 291°
2026-05-06 12:42 53.68744 -3.96205 24069 ft 440 kts 291°
2026-05-06 12:42 53.69881 -4.00996 24069 ft 440 kts 291°
2026-05-06 12:42 53.70969 -4.05818 24069 ft 439 kts 287°
2026-05-06 12:42 53.71670 -4.10827 24064 ft 439 kts 278°
2026-05-06 12:43 53.71943 -4.15951 24061 ft 438 kts 274°
2026-05-06 12:43 53.72130 -4.21090 24057 ft 438 kts 274°
2026-05-06 12:43 53.72322 -4.26224 24050 ft 438 kts 274°
2026-05-06 12:43 53.72516 -4.31360 24044 ft 438 kts 274°
2026-05-06 12:44 53.72709 -4.36520 23883 ft 445 kts 274°
2026-05-06 12:44 53.72901 -4.41765 22704 ft 448 kts 274°
2026-05-06 12:44 53.73090 -4.46991 21656 ft 443 kts 274°
2026-05-06 12:44 53.73273 -4.52128 20783 ft 435 kts 274°
2026-05-06 12:45 53.73454 -4.57192 19910 ft 429 kts 274°
2026-05-06 12:45 53.73630 -4.62194 19067 ft 424 kts 274°
2026-05-06 12:45 53.73964 -4.72046 17360 ft 416 kts 273°
2026-05-06 12:46 53.74120 -4.76829 16597 ft 410 kts 273°
2026-05-06 12:46 53.74276 -4.81601 15851 ft 405 kts 273°
2026-05-06 12:46 53.74431 -4.86318 15127 ft 400 kts 273°
2026-05-06 12:46 53.74584 -4.90984 14425 ft 396 kts 274°
2026-05-06 12:47 53.74735 -4.95597 13738 ft 391 kts 274°
2026-05-06 12:47 53.74881 -5.00169 13035 ft 386 kts 273°
2026-05-06 12:47 53.75020 -5.04663 12392 ft 380 kts 273°
2026-05-06 12:47 53.75155 -5.09083 11744 ft 374 kts 273°
2026-05-06 12:48 53.75079 -5.13421 11348 ft 363 kts 264°
2026-05-06 12:48 53.74581 -5.17484 11221 ft 345 kts 255°
2026-05-06 12:48 53.73839 -5.21237 11092 ft 329 kts 252°
2026-05-06 12:48 53.73120 -5.24809 10961 ft 314 kts 252°
2026-05-06 12:49 53.72432 -5.28221 10835 ft 301 kts 252°
2026-05-06 12:49 53.71769 -5.31496 10708 ft 289 kts 252°
2026-05-06 12:49 53.71128 -5.34662 10463 ft 283 kts 252°
2026-05-06 12:49 53.70494 -5.37775 10215 ft 279 kts 252°
2026-05-06 12:50 53.69863 -5.40865 9972 ft 277 kts 252°
2026-05-06 12:50 53.69236 -5.43938 9851 ft 277 kts 252°
2026-05-06 12:50 53.68609 -5.47011 9713 ft 277 kts 252°
2026-05-06 12:50 53.68127 -5.50138 9578 ft 276 kts 263°
2026-05-06 12:51 53.68088 -5.53358 9448 ft 275 kts 273°
2026-05-06 12:51 53.68181 -5.56576 9316 ft 275 kts 272°
2026-05-06 12:51 53.68265 -5.59784 9184 ft 273 kts 272°
2026-05-06 12:51 53.68285 -5.62991 8963 ft 274 kts 264°
2026-05-06 12:52 53.67841 -5.66087 8709 ft 272 kts 248°
2026-05-06 12:52 53.66923 -5.68799 8409 ft 270 kts 232°
2026-05-06 12:52 53.65693 -5.71164 8194 ft 263 kts 227°
2026-05-06 12:52 53.64254 -5.72919 8060 ft 253 kts 207°
2026-05-06 12:53 53.62629 -5.74304 7944 ft 267 kts 209°
2026-05-06 12:53 53.60975 -5.75797 7816 ft 271 kts 210°
2026-05-06 12:53 53.59328 -5.77315 7671 ft 271 kts 210°
2026-05-06 12:53 53.57670 -5.78845 7315 ft 271 kts 209°
2026-05-06 12:54 53.56022 -5.80357 6895 ft 269 kts 209°
2026-05-06 12:54 53.54379 -5.81855 6465 ft 268 kts 208°
2026-05-06 12:54 53.52742 -5.83340 6018 ft 267 kts 208°
2026-05-06 12:54 53.51116 -5.84816 5587 ft 265 kts 208°
2026-05-06 12:55 53.49504 -5.86276 5171 ft 262 kts 208°
2026-05-06 12:55 53.47904 -5.87721 4753 ft 260 kts 207°
2026-05-06 12:55 53.46318 -5.89148 4335 ft 258 kts 207°
2026-05-06 12:55 53.44752 -5.90557 4037 ft 250 kts 207°
2026-05-06 12:56 53.43266 -5.91897 3969 ft 235 kts 207°
2026-05-06 12:56 53.41874 -5.93161 3892 ft 221 kts 210°
2026-05-06 12:56 53.40816 -5.94895 3798 ft 211 kts 240°
2026-05-06 12:56 53.40455 -5.97272 3560 ft 213 kts 271°
2026-05-06 12:57 53.40586 -5.99746 3273 ft 213 kts 275°
2026-05-06 12:57 53.40735 -6.02211 2978 ft 213 kts 275°
2026-05-06 12:57 53.40878 -6.04660 2679 ft 207 kts 275°
2026-05-06 12:57 53.41011 -6.06995 2431 ft 195 kts 275°
2026-05-06 12:58 53.41135 -6.09178 2155 ft 182 kts 275°
2026-05-06 12:58 53.41250 -6.11201 1901 ft 172 kts 275°
2026-05-06 12:58 53.41359 -6.13136 1678 ft 160 kts 276°
2026-05-06 12:58 53.41459 -6.14911 1465 ft 147 kts 276°
2026-05-06 12:59 53.41553 -6.16586 1259 ft 142 kts 276°
2026-05-06 12:59 53.41645 -6.18226 1062 ft 141 kts 276°
2026-05-06 12:59 53.41738 -6.19867 859 ft 142 kts 276°
2026-05-06 12:59 53.41828 -6.21517 652 ft 141 kts 276°
2026-05-06 13:00 53.41920 -6.23142 502 ft 139 kts 276°
2026-05-06 13:00 53.42010 -6.24765 297 ft 142 kts 275°
2026-05-06 13:00 53.42097 -6.26350 213 ft 124 kts 275°
2026-05-06 13:00 53.42160 -6.27508 210 ft 75 kts 275°
2026-05-06 13:01 53.42195 -6.28077 219 ft 31 kts 284°
2026-05-06 13:01 53.42315 -6.28321 211 ft 22 kts 351°
2026-05-06 13:01 53.42368 -6.28171 211 ft 16 kts 92°
2026-05-06 13:01 53.42359 -6.27958 211 ft 20 kts 95°
2026-05-06 13:02 53.42347 -6.27716 213 ft 22 kts 94°
2026-05-06 13:02 53.42330 -6.27455 211 ft 24 kts 96°
2026-05-06 13:02 53.42313 -6.27158 215 ft 26 kts 95°
2026-05-06 13:02 53.42296 -6.26850 211 ft 27 kts 95°
2026-05-06 13:03 53.42285 -6.26641 211 ft 27 kts 95°
2026-05-06 13:03 53.42267 -6.26320 211 ft 28 kts 95°
2026-05-06 13:03 53.42248 -6.25992 215 ft 29 kts 96°
2026-05-06 13:03 53.42231 -6.25658 214 ft 29 kts 95°
2026-05-06 13:04 53.42212 -6.25320 211 ft 29 kts 95°
2026-05-06 13:04 53.42194 -6.24986 212 ft 28 kts 95°
2026-05-06 13:04 53.42177 -6.24656 220 ft 29 kts 95°
2026-05-06 13:04 53.42161 -6.24362 218 ft 14 kts 91°
2026-05-06 13:05 53.42189 -6.24293 214 ft 0 kts 354°
2026-05-06 13:05 53.42194 -6.24296 211 ft 5 kts 345°
2026-05-06 13:05 53.42254 -6.24352 217 ft 6 kts 330°
2026-05-06 13:05 53.42264 -6.24361 213 ft 0 kts 330°